#timestamp,LO_Frequency,Hit,StdDev 
1565845245.3,286046983.2,E
1565845255.2,286046986.9,N
1565845275.1,286046997.2,P
1565845276.0,286046997.2,N
1565845295.8,286046996.6,N
1565845315.7,286046998.8,N
1565845335.5,286047001.0,N
1565845355.3,286047000.8,N
1565845375.2,286046999.8,N
1565845395.0,286047001.2,N
1565845395.9,286047001.2,N
1565845415.8,286046997.0,N
1565845435.6,286046996.8,N
1565845455.4,286046993.6,N
1565845475.3,286046992.3,N
1565845495.1,286046991.6,N
1565845515.9,286046987.2,Y
1565845535.7,286046992.4,P
1565845555.5,286046994.4,N
1565845575.4,286046993.5,P
1565845595.2,286046992.6,Y
1565845615.0,286046997.3,P
1565845616.0,286046997.3,N
1565845635.8,286046997.6,N
1565845655.6,286046996.8,N
1565845675.5,286046993.3,Y
1565845695.3,286046998.7,P
1565845715.1,286046999.2,N
1565845735.9,286046999.9,N
1565845755.7,286047002.8,N
1565845775.6,286047003.6,N
1565845795.4,286047007.6,Y
1565845815.2,286047007.7,P
1565845835.1,286047013.9,P
1565845836.0,286047013.9,N
1565845855.8,286047013.7,N
1565845875.6,286047012.2,N
1565845895.5,286047009.3,N
1565845915.3,286047009.4,N
1565845935.2,286047012.1,N
1565845955.9,286047009.6,N
1565846005.8,286047013.7,E
1565846015.7,286047005.4,N
1565846035.5,286046997.4,P
1565846055.3,286046997.3,N
1565846075.2,286046998.7,N
1565846095.0,286046997.0,N
1565846095.9,286046997.0,N
1565846115.8,286046997.1,N
1565846165.6,286046988.7,E
1565846175.6,286046994.7,N
1565846195.4,286046997.4,P
1565846215.2,286046995.7,P
1565846235.1,286046995.9,Y
1565846236.0,286046995.9,P
1565846255.8,286046998.8,P
1565846275.6,286046996.8,N
1565846295.5,286046997.9,N
1565846315.3,286046999.0,N
1565846335.2,286046999.5,N
1565846355.9,286046995.8,Y
1565846375.7,286046997.9,P
1565846395.6,286046993.9,P
1565846445.4,286046989.9,E
1565846455.4,286046993.2,N
1565846475.2,286046994.4,P
1565846495.0,286046989.9,P
1565846495.9,286046989.9,Y
1565846515.8,286046999.2,P
1565846535.6,286046996.1,N
1565846555.5,286046990.8,P
1565846575.3,286046989.2,Y
1565846595.1,286046988.9,P
1565846615.9,286046987.5,P
1565846635.7,286046986.8,P
1565846655.6,286046985.5,Y
1565846675.4,286046997.1,P
1565846695.2,286046997.2,N
1565846715.1,286046997.2,N
1565846716.0,286047011.9,Y
1565846735.8,286047007.6,P
1565846755.6,286047003.2,N
1565846775.5,286047004.1,N
1565846795.3,286046999.2,N
1565846815.2,286046993.6,N
1565846835.9,286046991.0,N
1565846855.7,286046986.9,N
1565846875.6,286046989.3,N
1565846895.4,286046989.5,N
1565846915.2,286046992.1,N
1565846935.1,286046993.1,N
1565846936.0,286046993.1,N
1565846955.8,286046990.8,N
1565846975.7,286046988.4,N
1565846995.5,286046987.1,N
1565847015.3,286046988.0,N
1565847035.2,286046989.2,N
1565847055.0,286046989.3,N
1565847055.9,286046989.3,N
1565847075.7,286046992.7,N
1565847095.6,286046992.5,N
1565847115.4,286046994.8,N
1565847135.3,286046990.7,N
1565847155.1,286046987.8,N
1565847156.0,286046987.8,N
1565847175.8,286046985.7,N
1565847195.7,286046984.2,N
1565847215.5,286046983.7,N
1565847235.4,286046982.3,Y
1565847255.2,286046985.9,P
1565847275.0,286046984.9,P
1565847275.9,286046984.9,P
1565847295.8,286046982.9,Y
1565847315.6,286046994.5,P
1565847335.4,286046992.3,N
1565847355.3,286046993.3,N
1565847375.1,286047004.3,N
1565847395.9,286047009.9,N
1565847415.7,286047013.1,N
1565847435.5,286047012.7,N
1565847455.4,286047012.7,N
1565847475.2,286047017.8,N
1565847495.0,286047019.0,N
1565847495.9,286047019.0,N
1565847515.8,286047021.3,N
1565847535.6,286047015.7,N
1565847555.5,286047013.0,N
1565847575.3,286047015.1,N
1565847595.1,286047017.6,N
1565847615.9,286047017.6,N
1565847635.7,286047014.5,N
1565847655.6,286047009.1,N
1565847675.4,286047003.1,N
1565847695.2,286047002.3,N
1565847715.1,286046998.9,N
1565847716.0,286046998.9,N
1565847735.8,286046993.8,N
1565847755.6,286046996.0,N
1565847775.5,286047000.6,N
1565847795.3,286047002.6,N
1565847815.2,286047000.5,N
1565847835.9,286047000.6,N
1565847855.7,286047000.7,N
1565847875.6,286046994.9,N
1565847895.4,286046993.6,N
1565847915.2,286046996.4,N
1565847935.1,286047001.0,N
1565847936.0,286047001.0,N
1565847955.8,286047007.3,N
1565847975.7,286047009.6,N
1565847995.5,286047011.2,N
1565848015.3,286047017.0,N
1565848035.2,286047020.0,N
1565848055.0,286047017.9,N
1565848055.9,286047017.9,N
1565848075.7,286047017.9,N
1565848095.6,286047018.2,N
1565848115.4,286047014.1,N
1565848135.3,286047011.1,N
1565848155.1,286047008.6,N
1565848156.0,286047008.6,N
1565848175.8,286047003.0,N
1565848195.7,286047001.4,N
1565848215.5,286047001.3,N
1565848235.4,286047003.1,N
1565848255.2,286047005.4,N
1565848275.0,286047006.2,N
1565848275.9,286047006.2,N
1565848295.8,286047009.6,N
1565848315.6,286047009.4,N
1565848335.4,286047008.3,N
1565848355.3,286047010.4,N
1565848375.1,286047008.3,N
1565848395.9,286047008.0,N
1565848415.7,286047009.8,N
1565848435.5,286047012.9,N
1565848455.4,286047015.5,N
1565848475.2,286047013.4,N
1565848495.0,286047010.9,N
1565848496.0,286047010.9,N
1565848515.8,286047012.8,N
1565848535.6,286047018.0,Y
1565848555.5,286047009.3,P
1565848575.3,286047013.2,P
1565848625.2,286047005.4,E
1565848635.1,286047000.2,N
1565848636.0,286047000.2,P
1565848655.8,286046995.7,P
1565848675.7,286046992.6,Y
1565848695.5,286046989.7,P
1565848715.4,286046983.6,P
1565848735.2,286046978.7,P
1565848755.0,286046976.2,Y
1565848755.9,286046976.2,P
1565848775.8,286046985.9,N
1565848795.6,286046982.2,P
